[[{"header":{"parameterUnit":"m.s-1","parameterCategory":1,"la1":30.2991,"la2":30.254,"lo1":-89.0895,"lo2":-89.0444,"dy":0.0017,"dx":0.0017,"nx":28,"ny":28,"refTime":"2024-10-15T09:00:00:Z","depth":0,"parameterNumber":2,"parameterNumberName":"U-component_of_WINDS"},"data":[0,0,0,0,0,0,0,0,0,0,0,0,0,0,0,0,0,0,0,0,0,0,0,0,0,0,0,0,0,0,0,0,0,0,0,0,0,0,0,0,0,0,0,0,0,0,0,0,0,0,0,0,0,0,0,0,0,0,-2.3101,-2.3101,0,-2.3049,-2.3049,-2.3048,-2.2905,-2.2902,-2.2899,-2.2896,-2.2847,-2.2848,-2.285,0,0,0,0,0,0,0,0,0,0,0,0,0,-2.308,-2.3081,-2.3101,-2.3101,-2.31,-2.3049,-2.3049,-2.3048,-2.2906,-2.2902,-2.2898,-2.2895,-2.2846,-2.2848,-2.285,0,0,0,0,0,0,0,0,0,0,0,0,0,-2.3065,-2.3081,-2.3101,-2.3023,-2.3015,-2.3049,-2.3049,-2.3048,-2.2907,-2.2902,-2.2897,-2.2893,-2.2846,-2.2848,-2.285,-2.2957,0,0,-2.2857,-2.2858,0,0,0,0,0,0,0,0,-2.3066,-2.3066,-2.3035,-2.3028,-2.302,-2.2979,-2.3023,-2.3017,-2.2908,-2.2948,-2.2896,-2.2891,-2.2895,-2.2893,-2.2893,-2.2955,-2.2953,-2.2857,-2.2859,-2.286,-2.286,0,0,0,0,0,0,0,-2.3067,-2.3067,-2.3081,-2.3035,-2.3026,-2.2991,-2.2984,-2.3021,-2.2948,-2.2944,-2.2934,-2.2929,-2.289,-2.2891,-2.2891,-2.2952,-2.2857,-2.2859,-2.2861,-2.2862,-2.3098,-2.3102,0,0,0,0,0,0,-2.3079,-2.3069,-2.3082,-2.3079,-2.3032,-2.2995,-2.2987,-2.2997,-2.2947,-2.2935,-2.2933,-2.2923,-2.289,-2.2888,-2.2889,-2.301,-2.286,-2.2862,-2.2863,-2.3093,-2.3099,-2.3104,0,0,0,0,0,0,-2.3079,-2.3082,-2.3084,-2.3071,-2.3069,-2.3,-2.3013,-2.2998,-2.3,-2.2939,-2.2926,-2.2948,-2.2886,-2.2885,-2.2941,-2.3007,-2.2863,-2.2865,-2.3087,-2.3095,-2.3101,-2.3255,0,0,0,0,0,0,-2.3079,-2.3082,-2.3122,-2.3073,-2.307,-2.3137,-2.3017,-2.3001,-2.3004,-2.2989,-2.2949,-2.2938,-2.2882,-2.2938,-2.2943,-2.3007,-2.2867,-2.3081,-2.309,-2.3099,-2.3244,-2.3267,-2.3286,0,0,0,0,0,-2.3079,-2.3168,-2.3125,-2.3127,-2.3118,-2.3141,-2.314,-2.3072,-2.301,-2.3049,-2.301,-2.294,-2.2998,-2.2945,-2.2949,-2.3015,-2.3076,-2.3088,-2.3098,-2.3234,-2.3262,-2.3286,0,0,0,0,0,0,-2.3229,-2.3161,-2.3112,-2.3188,-2.3171,-2.3117,-2.3165,-2.3104,-2.3106,-2.3093,-2.301,-2.3002,-2.3069,-2.3047,-2.2989,-2.3116,-2.3026,-2.3038,-2.3128,-2.3154,-2.3174,-2.3179,-2.2869,0,0,0,0,0,-2.327,-2.3294,-2.3233,-2.3307,-2.3301,-2.3235,-2.3242,-2.3191,-2.3171,-2.3164,-2.3129,-2.3113,-2.3127,-2.3139,-2.3149,-2.3239,-2.3229,-2.3287,-2.3308,-2.3326,-2.3338,-2.3383,-2.3409,-2.314,-2.314,-2.314,0,0,-2.3357,-2.3323,-2.3343,-2.3336,-2.3317,-2.3344,-2.323,-2.3263,-2.3283,-2.3169,-2.3219,-2.3193,-2.317,-2.3243,-2.3273,-2.3227,-2.3409,-2.334,-2.3354,-2.3357,-2.3397,-2.3423,-2.3446,-2.3147,-2.3146,-2.3145,0,0,-2.3529,-2.3506,-2.3564,-2.3547,-2.3519,-2.3474,-2.3488,-2.3443,-2.342,-2.3469,-2.3384,-2.3406,-2.3433,-2.342,-2.3417,-2.3582,-2.3518,-2.3588,-2.3699,-2.3745,-2.3766,-2.3784,-2.3843,-2.3866,-2.36,-2.36,-2.36,0,-2.3642,-2.3678,-2.3602,-2.364,-2.3639,-2.3536,-2.3594,-2.3582,-2.356,-2.3562,-2.351,-2.354,-2.3518,-2.3586,-2.3626,-2.3627,-2.3641,-2.3592,-2.3769,-2.3786,-2.3802,-2.3858,-2.3881,-2.3609,-2.3608,-2.3607,-2.3606,0,-2.3817,-2.3843,-2.3893,-2.3873,-2.3877,-2.3926,-2.3858,-2.3872,-2.382,-2.3781,-2.3832,-2.38,-2.3802,-2.3814,-2.3765,-2.3875,-2.3847,-2.3783,-2.3691,-2.3838,-2.3889,-2.391,-2.3621,-2.3618,-2.3615,-2.3613,0,0,-2.4084,-2.4019,-2.4039,-2.4027,-2.3988,-2.4008,-2.4051,-2.4051,-2.4065,-2.4053,-2.4088,-2.4112,-2.4052,-2.4049,-2.3997,-2.4037,-2.417,-2.3967,-2.3965,-2.4007,-2.429,-2.4339,-2.4365,-2.4126,-2.413,-2.4133,-2.4292,0,-2.4247,-2.4316,-2.4248,-2.4332,-2.4355,-2.4257,-2.4295,-2.4275,-2.424,-2.4255,-2.4216,-2.4234,-2.4154,-2.4151,-2.4186,-2.4147,-2.4226,-2.4134,-2.4159,-2.4161,-2.4169,-2.4391,-2.4443,-2.4595,-2.4311,-2.4315,-2.4317,0,-2.4446,-2.4441,-2.4527,-2.4481,-2.4489,-2.4524,-2.4518,-2.4533,-2.4509,-2.448,-2.4476,-2.4412,-2.4452,-2.4362,-2.4416,-2.4355,-2.4361,-2.4343,-2.4347,-2.4348,-2.4249,-2.4399,-2.4642,-2.4665,-2.4348,-2.4345,-2.4343,0,-2.4633,-2.4648,-2.47,-2.4694,-2.4642,-2.4669,-2.4649,-2.462,-2.4624,-2.4619,-2.4621,-2.4621,-2.4622,-2.4624,-2.4562,-2.4502,-2.4625,-2.4529,-2.4603,-2.4604,-2.4634,-2.4633,-2.4882,-2.4637,-2.4637,-2.4636,-2.4636,0,-2.4822,-2.4879,-2.4783,-2.4816,-2.4877,-2.4798,-2.486,-2.4829,-2.4804,-2.483,-2.4745,-2.4771,-2.4687,-2.4705,-2.4656,-2.4709,-2.471,-2.4688,-2.4675,-2.4696,-2.4699,-2.47,-2.4688,-2.4642,-2.4641,-2.464,-2.4639,0,-2.5041,-2.498,-2.5031,-2.4976,-2.4964,-2.5011,-2.4965,-2.4993,-2.4951,-2.4985,-2.4988,-2.4923,-2.4939,-2.4876,-2.4882,-2.485,-2.4928,-2.4897,-2.4936,-2.4927,-2.5004,-2.4998,-2.5263,-2.5294,-2.5029,-2.5031,-2.5033,0,-2.5167,-2.5207,-2.5157,-2.5167,-2.5151,-2.5169,-2.5172,-2.5095,-2.5102,-2.5077,-2.5109,-2.5117,-2.512,-2.515,-2.5104,-2.5108,-2.5076,-2.5169,-2.5077,-2.5097,-2.5078,-2.5077,-2.5081,-2.5189,-2.5192,-2.5195,-2.5197,0,-2.5396,-2.5363,-2.537,-2.5366,-2.5372,-2.5366,-2.5354,-2.5367,-2.5285,-2.5297,-2.5311,-2.5314,-2.5318,-2.5328,-2.5322,-2.5302,-2.5237,-2.5226,-2.5243,-2.5266,-2.5287,-2.5277,-2.4989,-2.5221,-2.5218,-2.5217,-2.5215,-2.5214,-2.5572,-2.5603,-2.5572,-2.5582,-2.5565,-2.5556,-2.5579,-2.5539,-2.5549,-2.5546,-2.5501,-2.5524,-2.5498,-2.5483,-2.5469,-2.5487,-2.5443,-2.5469,-2.5475,-2.5482,-2.5496,-2.5284,-2.5485,-2.5484,-2.5484,-2.5483,-2.5483,0,-2.5797,-2.5771,-2.5781,-2.5766,-2.5775,-2.571,-2.5693,-2.5705,-2.5726,-2.5707,-2.571,-2.5727,-2.5736,-2.5689,-2.5692,-2.5715,-2.5685,-2.5718,-2.5716,-2.5713,-2.5534,-2.5519,-2.5742,-2.5742,-2.5742,-2.5742,-2.5742,-2.5742,-2.5915,-2.5964,-2.5927,-2.5967,-2.5941,-2.5962,-2.5958,-2.5949,-2.5933,-2.5955,-2.5961,-2.593,-2.5899,-2.5899,-2.5904,-2.589,-2.5895,-2.5939,-2.5916,-2.575,-2.5725,-2.5701,-2.5686,-2.5941,-2.5941,-2.6092,-2.6093,-2.6094]},{"header":{"parameterUnit":"m.s-1","parameterCategory":1,"la1":30.2991,"la2":30.254,"lo1":-89.0895,"lo2":-89.0444,"dy":0.0017,"dx":0.0017,"nx":28,"ny":28,"refTime":"2024-10-15T09:00:00:Z","depth":0,"parameterNumber":3,"parameterNumberName":"V-component_of_WINDS"},"data":[0,0,0,0,0,0,0,0,0,0,0,0,0,0,0,0,0,0,0,0,0,0,0,0,0,0,0,0,0,0,0,0,0,0,0,0,0,0,0,0,0,0,0,0,0,0,0,0,0,0,0,0,0,0,0,0,0,0,-2.4191,-2.4192,0,-2.4333,-2.4334,-2.4336,-2.4416,-2.4417,-2.4417,-2.4417,-2.4557,-2.4561,-2.4564,0,0,0,0,0,0,0,0,0,0,0,0,0,-2.3984,-2.3988,-2.4191,-2.4192,-2.4194,-2.4332,-2.4334,-2.4336,-2.4416,-2.4417,-2.4417,-2.4417,-2.4556,-2.456,-2.4564,0,0,0,0,0,0,0,0,0,0,0,0,0,-2.4095,-2.3989,-2.419,-2.4251,-2.4258,-2.4332,-2.4334,-2.4337,-2.4416,-2.4417,-2.4417,-2.4418,-2.4555,-2.456,-2.4565,-2.4588,0,0,-2.4581,-2.4583,0,0,0,0,0,0,0,0,-2.4088,-2.4102,-2.424,-2.4247,-2.4255,-2.4357,-2.4313,-2.4421,-2.4416,-2.4356,-2.4417,-2.4418,-2.449,-2.4501,-2.4526,-2.4595,-2.4601,-2.4581,-2.4585,-2.4587,-2.4588,0,0,0,0,0,0,0,-2.4081,-2.4097,-2.4247,-2.4242,-2.4251,-2.427,-2.4286,-2.4334,-2.4419,-2.4361,-2.4367,-2.4383,-2.4494,-2.4521,-2.453,-2.4603,-2.4581,-2.4586,-2.4589,-2.4591,-2.4698,-2.4698,0,0,0,0,0,0,-2.4064,-2.409,-2.4242,-2.4251,-2.4171,-2.4273,-2.4291,-2.4324,-2.4418,-2.4433,-2.4383,-2.4387,-2.4512,-2.4524,-2.4535,-2.4569,-2.4587,-2.4592,-2.4595,-2.4698,-2.4698,-2.4697,0,0,0,0,0,0,-2.4059,-2.4077,-2.4237,-2.4172,-2.4194,-2.4276,-2.4312,-2.4326,-2.4354,-2.4435,-2.445,-2.4395,-2.4513,-2.4528,-2.4575,-2.4575,-2.4594,-2.4599,-2.4698,-2.4698,-2.4698,-2.4635,0,0,0,0,0,0,-2.4053,-2.4075,-2.4085,-2.4172,-2.4197,-2.4275,-2.4312,-2.4329,-2.4363,-2.4369,-2.445,-2.4464,-2.4514,-2.4567,-2.458,-2.4582,-2.4603,-2.4699,-2.4698,-2.4698,-2.4638,-2.4633,-2.4629,0,0,0,0,0,-2.4045,-2.4061,-2.4086,-2.4103,-2.4212,-2.4275,-2.4289,-2.4348,-2.4363,-2.4373,-2.4426,-2.4461,-2.4573,-2.4571,-2.4587,-2.459,-2.4699,-2.4698,-2.4698,-2.464,-2.4634,-2.4629,0,0,0,0,0,0,-2.397,-2.4074,-2.4102,-2.4146,-2.4201,-2.4288,-2.4304,-2.434,-2.439,-2.4394,-2.4463,-2.4481,-2.4521,-2.4561,-2.4557,-2.4618,-2.464,-2.4642,-2.459,-2.4585,-2.4581,-2.457,-2.4607,0,0,0,0,0,-2.396,-2.4003,-2.409,-2.4121,-2.4147,-2.422,-2.425,-2.4291,-2.435,-2.4373,-2.4429,-2.4483,-2.4531,-2.456,-2.4609,-2.4644,-2.4663,-2.4654,-2.465,-2.4646,-2.4647,-2.4668,-2.4665,-2.4695,-2.4695,-2.4695,0,0,-2.3936,-2.3998,-2.4021,-2.4107,-2.4155,-2.4197,-2.4239,-2.4282,-2.4314,-2.4379,-2.4427,-2.447,-2.4535,-2.4577,-2.4598,-2.4611,-2.4643,-2.4645,-2.4641,-2.4644,-2.4667,-2.4664,-2.4662,-2.4695,-2.4695,-2.4695,0,0,-2.3916,-2.3968,-2.3999,-2.4046,-2.4118,-2.4167,-2.4174,-2.4256,-2.4288,-2.4338,-2.4388,-2.4425,-2.4506,-2.455,-2.4583,-2.4581,-2.4615,-2.4594,-2.457,-2.459,-2.4588,-2.4586,-2.4584,-2.4583,-2.4595,-2.4595,-2.4595,0,-2.3878,-2.3945,-2.401,-2.405,-2.4086,-2.415,-2.4181,-2.4223,-2.4306,-2.4329,-2.4343,-2.4445,-2.4494,-2.4546,-2.4546,-2.4571,-2.4581,-2.4585,-2.4583,-2.4582,-2.4581,-2.458,-2.4579,-2.4592,-2.4592,-2.4593,-2.4593,0,-2.3894,-2.394,-2.3956,-2.4037,-2.4075,-2.411,-2.4179,-2.4209,-2.4247,-2.4294,-2.4343,-2.4404,-2.4466,-2.4481,-2.4518,-2.4539,-2.4545,-2.457,-2.4593,-2.4574,-2.4574,-2.4575,-2.4587,-2.4589,-2.459,-2.459,0,0,-2.3829,-2.3946,-2.3951,-2.3988,-2.4073,-2.4109,-2.4147,-2.4209,-2.4233,-2.4288,-2.4321,-2.4388,-2.4412,-2.445,-2.4492,-2.451,-2.4503,-2.4533,-2.4536,-2.4524,-2.4529,-2.4509,-2.4508,-2.4527,-2.4527,-2.4528,-2.4524,0,-2.382,-2.3893,-2.3953,-2.4003,-2.4045,-2.4106,-2.4139,-2.4194,-2.4238,-2.428,-2.4329,-2.4375,-2.4404,-2.4427,-2.4448,-2.4499,-2.4505,-2.4501,-2.4557,-2.4558,-2.4537,-2.4508,-2.4487,-2.448,-2.4524,-2.4524,-2.4524,0,-2.3819,-2.3874,-2.3928,-2.4009,-2.4029,-2.4058,-2.4119,-2.4159,-2.4222,-2.4253,-2.4295,-2.434,-2.4381,-2.4402,-2.4459,-2.4455,-2.4482,-2.4511,-2.4512,-2.4518,-2.4539,-2.4513,-2.448,-2.4478,-2.4525,-2.4525,-2.4525,0,-2.3765,-2.3852,-2.3896,-2.3926,-2.4022,-2.404,-2.4081,-2.4144,-2.4178,-2.4231,-2.4254,-2.431,-2.4341,-2.4384,-2.4442,-2.4451,-2.4493,-2.4518,-2.4519,-2.4518,-2.4524,-2.4522,-2.4493,-2.4543,-2.4543,-2.4543,-2.4543,0,-2.3747,-2.3778,-2.3873,-2.39,-2.3936,-2.4004,-2.4037,-2.4083,-2.4139,-2.4175,-2.4231,-2.4263,-2.4339,-2.4379,-2.4425,-2.4465,-2.4479,-2.4505,-2.4516,-2.4499,-2.4495,-2.4516,-2.4518,-2.4543,-2.4543,-2.4543,-2.4543,0,-2.3692,-2.3757,-2.3809,-2.3896,-2.3918,-2.3941,-2.4015,-2.4042,-2.4091,-2.4135,-2.415,-2.4225,-2.4277,-2.434,-2.441,-2.4441,-2.4476,-2.4495,-2.4455,-2.4462,-2.4459,-2.4458,-2.4441,-2.4442,-2.4491,-2.449,-2.449,0,-2.3676,-2.3701,-2.3791,-2.382,-2.3859,-2.3905,-2.394,-2.4008,-2.4042,-2.4116,-2.4135,-2.4191,-2.4239,-2.4317,-2.4378,-2.4432,-2.4451,-2.4442,-2.446,-2.4442,-2.445,-2.4447,-2.445,-2.4436,-2.4435,-2.4435,-2.4434,0,-2.364,-2.3672,-2.3721,-2.3781,-2.3822,-2.3872,-2.3925,-2.3945,-2.4024,-2.4059,-2.4113,-2.4151,-2.4224,-2.4278,-2.4341,-2.4381,-2.442,-2.4429,-2.4432,-2.4413,-2.4389,-2.4401,-2.4441,-2.4428,-2.4429,-2.4429,-2.443,-2.443,-2.3604,-2.3629,-2.3696,-2.3749,-2.3797,-2.3845,-2.3875,-2.3929,-2.3975,-2.4041,-2.4079,-2.4131,-2.4194,-2.4282,-2.4321,-2.4362,-2.4377,-2.4381,-2.4382,-2.4381,-2.4376,-2.4384,-2.4374,-2.4374,-2.4375,-2.4375,-2.4375,0,-2.357,-2.3617,-2.3665,-2.3738,-2.3779,-2.3815,-2.3876,-2.3907,-2.3953,-2.4009,-2.4056,-2.4118,-2.4171,-2.4236,-2.4294,-2.4314,-2.4334,-2.4327,-2.4325,-2.4334,-2.436,-2.4351,-2.431,-2.431,-2.431,-2.431,-2.431,-2.431,-2.3557,-2.3601,-2.364,-2.3709,-2.3756,-2.3809,-2.384,-2.3885,-2.393,-2.3997,-2.4042,-2.4085,-2.4145,-2.4207,-2.4257,-2.4275,-2.4293,-2.428,-2.4303,-2.4326,-2.4332,-2.4337,-2.4329,-2.4284,-2.4284,-2.4273,-2.4273,-2.4273]}]]